Regional Weather Roundup
Issued by NWS

Home | Current Version | Previous Version | Text Only | Print | Product List | Glossary Off
Versions: 1 2 3 4 5 6 7 8 9 10 11 12 13 14 15 16 17 18 19 20 21 22 23 24 25 26 27 28 29 30 31 32 33 34 35 36 37 38 39 40 41 42 43 44 45 46 47 48 49 50

000
ASUS45 KBOU 280707
RWRCO

WEATHER ROUNDUP FOR COLORADO
NATIONAL WEATHER SERVICE DENVER/BOULDER CO
100 AM MDT THU MAY 28 2015

NOTE: "FAIR" INDICATES FEW OR NO CLOUDS BELOW 12000 FEET WITH NO
SIGNIFICANT WEATHER AND/OR OBSTRUCTIONS TO VISIBILITY.

COZ001>005-013-030-031-280800-
...NORTHWEST COLORADO...

CITY           SKY/WX    TMP DP  RH WIND       PRES   REMARKS
CRAIG          CLOUDY    51  43  74 E5        30.17F
HAYDEN         MOCLDY    48  39  71 E3        30.18F
MEEKER         CLOUDY    48  43  82 N3        30.19F
MOUNT WERNER   NOT AVBL
STEAMBOAT SPGS CLOUDY    47  43  86 E6        30.21S
WALDEN         PTCLDY    41  36  81 SE7       30.23S
$$

COZ006>008-011-280800-
...WEST CENTRAL VALLEYS...

CITY           SKY/WX    TMP DP  RH WIND       PRES   REMARKS
GRAND JUNCTION MOCLDY    52  49  89 CALM      30.12F
MONTROSE       MOCLDY    56  42  59 CALM      30.19R
EAGLE          MOCLDY    48  43  81 E5        30.21F
RIFLE          RAIN      51  47  86 NW5       30.21R
DELTA          PTCLDY    56  47  70 CALM      30.12F
NUCLA          PTCLDY    55  41  58 CALM      30.18S
$$

COZ017>023-064>068-280800-
...SOUTHWEST COLORADO...

CITY           SKY/WX    TMP DP  RH WIND       PRES   REMARKS
DURANGO        MOCLDY    48  39  71 CALM      30.15S
CORTEZ         CLEAR     49  41  74 SE9       30.13R
PAGOSA SPRINGS PTCLDY    46  33  61 NE3       30.22S
TELLURIDE      PTCLDY    43  35  71 W8        30.32R
WOLF CREEK PAS NOT AVBL
$$

COZ009-010-012-014-032>034-037-058>063-280800-
...CENTRAL COLORADO...

CITY           SKY/WX    TMP DP  RH WIND       PRES   REMARKS
ASPEN          PTCLDY    44  36  73 SE5       30.24S
BUENA VISTA    PTCLDY    40  35  81 W3        30.24S
COPPER MTN     MOCLDY    37  28  70 SW8       30.41S
BERTHOUD PASS  FAIR      28  21  74 NW16      30.41F WCI  17
COTTONWOOD PAS PTCLDY    45  32  61 CALM      30.32R
GUNNISON       PTCLDY    39  34  81 CALM      30.28S
KREMMLING      CLOUDY    46  39  76 CALM      30.24S
LEADVILLE      PTCLDY    34  30  85 CALM      30.31R
MONARCH PASS   PTCLDY    34  28  80 W20       30.51S WCI  22
SALIDA         PTCLDY    44  37  76 W5        30.30R
SUNLIGHT       RAIN      36  36 100 SW3       30.39S
WILKERSON PASS PTCLDY    37  27  65 SW8       30.40F
$$

COZ069>075-280800-
...SAN LUIS VALLEY/SANGRE DE CRISTO MOUNTAINS...

CITY           SKY/WX    TMP DP  RH WIND       PRES   REMARKS
ALAMOSA        PTCLDY    42  36  79 W7        30.22R
LA VETA PASS   CLOUDY   N/A N/A N/A MISG      30.34F
SAGUACHE       PTCLDY    43  36  75 NW12      30.24S
$$

COZ035-036-038>040-280800-
...NORTHERN COLORADO FRONT RANGE...

CITY           SKY/WX    TMP DP  RH WIND       PRES   REMARKS
DENVER INTL AP PTCLDY    58  43  57 W8        30.05F
DMNS CITY PARK   N/A     56  46  70 SW3       30.05F
AURORA         PTCLDY    54  46  73 S7        30.08S
FRONT RANGE AP PTCLDY    59  50  72 MISG      30.06S
ERIE MUNI ARPT PTCLDY    55  50  83 CALM      30.06R
BOULDER MUN AP PTCLDY    57  43  58 N6        30.07R
CENTENNIAL     PTCLDY    53  44  71 SW6       30.08F
BROOMFIELD     PTCLDY    57  45  62 N6        30.08S
FORT COLLINS   MOCLDY    55  54  94 N6        30.07F
LONGMONT       MOCLDY    58  52  81 N6        30.07S
$$

COZ041-046-047-076>085-087-088-280800-
...PIKES PEAK/PALMER DIVIDE AND SOUTHERN FOOTHILLS...

CITY           SKY/WX    TMP DP  RH WIND       PRES   REMARKS
COLO. SPRINGS  PTCLDY    57  41  55 NW3       30.12F
A. F. ACADEMY  PTCLDY    53  39  60 N6        30.13S
ELLICOTT       PTCLDY   N/A N/A N/A CALM      30.10F
FALCON         PTCLDY    53  36  52 W7        30.16F
FORT CARSON    MOCLDY    51  42  70 NW6       30.09F
LIMON          CLOUDY    53  52  96 SE15      30.10F
MONUMENT HILL  PTCLDY    48  41  76 MISG      30.16F
TRINIDAD       PTCLDY    51  45  79 W12       30.10F
$$

COZ042>045-048>051-090-091-280800-
...NORTHEAST COLORADO...

CITY           SKY/WX    TMP DP  RH WIND       PRES   REMARKS
GREELEY ARPT   MOCLDY    57  55  94 N5        30.04S
AKRON          MOCLDY    55  53  93 S21G31    30.05F
BURLINGTON     MOCLDY    55  53  93 SE18      30.06F
WRAY           CLOUDY    61  56  85 SE6       30.05F
STERLING       CLOUDY    61  55  82 CALM      30.05R
HOLYOKE        MOCLDY    55  52  88 S5        30.05S
FORT MORGAN    MOCLDY    56  52  89 CALM      30.07S
$$

COZ086-089-092>099-280800-
...SOUTHEAST COLORADO...

CITY           SKY/WX    TMP DP  RH WIND       PRES   REMARKS
PUEBLO         MOCLDY    57  52  83 MISG      30.04S
LA JUNTA       CLEAR     62  51  67 S9        30.03F
LAMAR          MOCLDY    61  54  77 S13G22    30.00F
SPRINGFIELD      N/A     56  55  97 SE13      30.05F
$$



USA.gov is the U.S. government's official web portal to all federal, state and local government web resources and services.